User: anonymous   Login
Location: Iola
(37.9240°N, 95.4000°W)
Time: 08:04:58
(UTC-05:00)
Language:

Meteor 2-10 Rocket - Orbit

View from above orbital plane
View from above orbital plane
View from above satellite
View from above satellite

Ground track
Ground track

The orbit data is extracted from the following two-line orbital elements,

1 14453U 83109B   15115.16925946  .00000182  00000-0  68535-4 0  9995
2 14453 081.1674 174.9798 0105348 171.1165 189.1912 14.24589918635897
Epoch (UTC): 25 April 2015 04:03:44
Eccentricity: 0.0105348
inclination: 81.1674°
perigee height: 734 km
apogee height: 885 km
right ascension of ascending node: 174.9798°
argument of perigee: 171.1165°
revolutions per day: 14.24589918
mean anomaly at epoch: 189.1912°
orbit number at epoch: 63589

The dashed part of the orbit path shows where the satellite is in the earth's shadow,  

DLR